Time,TemperatureF,DewpointF,PressureIn,WindDirection,WindDirectionDegrees,WindSpeedMPH,WindSpeedGustMPH,Humidity,HourlyPrecipIn,Conditions,Clouds,dailyrainin,SoftwareType,DateUTC
2013-03-08 00:14:00,34.9,20.8,30.10,NE,45,0.0,-999.0,56,-99.99,,,0.00,Acu-Link.com,2013-03-08 05:14:00,
2013-03-08 00:29:00,34.7,20.2,30.09,ENE,67,1.7,-999.0,55,-99.99,,,0.00,Acu-Link.com,2013-03-08 05:29:00,
2013-03-08 00:44:00,34.3,20.3,30.09,ESE,112,0.0,-999.0,56,-99.99,,,0.00,Acu-Link.com,2013-03-08 05:44:00,
2013-03-08 00:59:00,33.8,20.2,30.09,East,90,1.1,-999.0,57,-99.99,,,0.00,Acu-Link.com,2013-03-08 05:59:00,
2013-03-08 01:14:00,33.3,20.1,30.10,NE,45,0.0,-999.0,58,-99.99,,,0.00,Acu-Link.com,2013-03-08 06:14:00,
2013-03-08 01:29:00,32.7,20.4,30.10,SE,135,0.0,-999.0,60,-99.99,,,0.00,Acu-Link.com,2013-03-08 06:29:00,
2013-03-08 01:44:00,32.5,20.2,30.10,NW,315,0.0,-999.0,60,-99.99,,,0.00,Acu-Link.com,2013-03-08 06:44:00,
2013-03-08 01:59:00,31.8,20.3,30.11,West,270,0.0,-999.0,62,-99.99,,,0.00,Acu-Link.com,2013-03-08 06:59:00,
2013-03-08 02:15:00,31.1,20.0,30.11,SE,135,0.0,-999.0,63,-99.99,,,0.00,Acu-Link.com,2013-03-08 07:15:00,
2013-03-08 02:30:00,30.7,20.4,30.11,South,180,0.0,-999.0,65,-99.99,,,0.00,Acu-Link.com,2013-03-08 07:30:00,
2013-03-08 02:45:00,30.0,20.0,30.11,East,90,0.0,-999.0,66,-99.99,,,0.00,Acu-Link.com,2013-03-08 07:45:00,
2013-03-08 03:00:00,29.7,20.1,30.10,ESE,112,0.0,-999.0,67,-99.99,,,0.00,Acu-Link.com,2013-03-08 08:00:00,
2013-03-08 03:15:00,29.1,20.2,30.11,NE,45,0.0,-999.0,69,-99.99,,,0.00,Acu-Link.com,2013-03-08 08:15:00,
2013-03-08 03:30:00,28.8,20.9,30.10,WNW,292,1.1,-999.0,72,-99.99,,,0.00,Acu-Link.com,2013-03-08 08:30:00,
2013-03-08 03:45:00,28.4,20.5,30.11,West,270,1.1,-999.0,72,-99.99,,,0.00,Acu-Link.com,2013-03-08 08:45:00,
2013-03-08 04:00:00,28.4,20.5,30.10,NE,45,0.0,-999.0,72,-99.99,,,0.00,Acu-Link.com,2013-03-08 09:00:00,
2013-03-08 04:16:00,28.2,20.7,30.11,WNW,292,0.0,-999.0,73,-99.99,,,0.00,Acu-Link.com,2013-03-08 09:16:00,
2013-03-08 04:31:00,27.9,20.7,30.12,SW,225,0.0,-999.0,74,-99.99,,,0.00,Acu-Link.com,2013-03-08 09:31:00,
2013-03-08 04:46:00,27.3,20.1,30.12,SW,225,0.0,-999.0,74,-99.99,,,0.00,Acu-Link.com,2013-03-08 09:46:00,
2013-03-08 05:01:00,27.3,20.4,30.12,SW,225,0.0,-999.0,75,-99.99,,,0.00,Acu-Link.com,2013-03-08 10:01:00,
2013-03-08 05:16:00,27.0,20.5,30.12,SSE,157,0.0,-999.0,76,-99.99,,,0.00,Acu-Link.com,2013-03-08 10:16:00,
2013-03-08 05:31:00,27.0,19.8,30.12,NNW,337,0.0,-999.0,74,-99.99,,,0.00,Acu-Link.com,2013-03-08 10:31:00,
2013-03-08 05:46:00,26.8,20.0,30.12,East,90,0.0,-999.0,75,-99.99,,,0.00,Acu-Link.com,2013-03-08 10:46:00,
2013-03-08 06:02:00,26.4,19.9,30.12,SSE,157,0.0,-999.0,76,-99.99,,,0.00,Acu-Link.com,2013-03-08 11:02:00,
2013-03-08 06:17:00,26.2,19.7,30.12,ESE,112,0.0,-999.0,76,-99.99,,,0.00,Acu-Link.com,2013-03-08 11:17:00,
2013-03-08 06:32:00,25.9,19.4,30.13,NNW,337,0.0,-999.0,76,-99.99,,,0.00,Acu-Link.com,2013-03-08 11:32:00,
2013-03-08 06:47:00,25.9,19.7,30.13,NW,315,0.0,-999.0,77,-99.99,,,0.00,Acu-Link.com,2013-03-08 11:47:00,
2013-03-08 07:02:00,25.9,19.7,30.15,NW,315,0.0,-999.0,77,-99.99,,,0.00,Acu-Link.com,2013-03-08 12:02:00,
2013-03-08 07:17:00,26.2,20.0,30.15,WNW,292,0.0,-999.0,77,-99.99,,,0.00,Acu-Link.com,2013-03-08 12:17:00,
2013-03-08 07:32:00,27.1,20.9,30.16,South,180,0.0,-999.0,77,-99.99,,,0.00,Acu-Link.com,2013-03-08 12:32:00,
2013-03-08 07:47:00,27.7,21.4,30.16,WNW,292,0.0,-999.0,77,-99.99,,,0.00,Acu-Link.com,2013-03-08 12:47:00,
2013-03-08 08:02:00,28.6,22.6,30.16,WNW,292,0.0,-999.0,78,-99.99,,,0.00,Acu-Link.com,2013-03-08 13:02:00,
2013-03-08 08:18:00,30.6,24.0,30.16,ENE,67,0.0,-999.0,76,-99.99,,,0.00,Acu-Link.com,2013-03-08 13:18:00,
2013-03-08 08:33:00,32.9,22.4,30.16,ESE,112,0.0,-999.0,65,-99.99,,,0.00,Acu-Link.com,2013-03-08 13:33:00,
2013-03-08 08:48:00,34.9,22.8,30.16,WNW,292,0.0,-999.0,61,-99.99,,,0.00,Acu-Link.com,2013-03-08 13:48:00,
2013-03-08 09:03:00,37.2,23.0,30.16,South,180,0.0,-999.0,56,-99.99,,,0.00,Acu-Link.com,2013-03-08 14:03:00,
2013-03-08 09:18:00,39.6,22.5,30.17,ENE,67,2.2,-999.0,50,-99.99,,,0.00,Acu-Link.com,2013-03-08 14:18:00,
2013-03-08 09:33:00,41.2,21.5,30.17,SW,225,1.1,-999.0,45,-99.99,,,0.00,Acu-Link.com,2013-03-08 14:33:00,
2013-03-08 09:48:00,43.0,21.5,30.16,NW,315,0.0,-999.0,42,-99.99,,,0.00,Acu-Link.com,2013-03-08 14:48:00,
2013-03-08 10:03:00,45.1,20.4,30.16,ESE,112,1.7,-999.0,37,-99.99,,,0.00,Acu-Link.com,2013-03-08 15:03:00,
2013-03-08 10:18:00,47.1,20.2,30.16,SSE,157,0.0,-999.0,34,-99.99,,,0.00,Acu-Link.com,2013-03-08 15:18:00,
2013-03-08 10:33:00,47.7,19.3,30.16,West,270,2.7,-999.0,32,-99.99,,,0.00,Acu-Link.com,2013-03-08 15:33:00,
2013-03-08 10:49:00,49.1,19.8,30.16,WNW,292,1.7,-999.0,31,-99.99,,,0.00,Acu-Link.com,2013-03-08 15:49:00,
2013-03-08 11:04:00,52.7,16.9,30.16,NW,315,2.7,-999.0,24,-99.99,,,0.00,Acu-Link.com,2013-03-08 16:04:00,
2013-03-08 11:19:00,52.3,16.6,30.16,West,270,2.2,-999.0,24,-99.99,,,0.00,Acu-Link.com,2013-03-08 16:19:00,
2013-03-08 11:34:00,50.7,18.0,30.16,ESE,112,2.7,-999.0,27,-99.99,,,0.00,Acu-Link.com,2013-03-08 16:34:00,
2013-03-08 11:49:00,51.8,18.0,30.15,North,0,1.1,-999.0,26,-99.99,,,0.00,Acu-Link.com,2013-03-08 16:49:00,
2013-03-08 12:04:00,54.9,17.8,30.14,East,90,3.2,-999.0,23,-99.99,,,0.00,Acu-Link.com,2013-03-08 17:04:00,
2013-03-08 12:19:00,55.9,15.4,30.14,ENE,67,2.2,-999.0,20,-99.99,,,0.00,Acu-Link.com,2013-03-08 17:19:00,
2013-03-08 12:34:00,56.3,12.1,30.13,East,90,1.7,-999.0,17,-99.99,,,0.00,Acu-Link.com,2013-03-08 17:34:00,
2013-03-08 12:49:00,56.8,13.8,30.13,ENE,67,1.7,-999.0,18,-99.99,,,0.00,Acu-Link.com,2013-03-08 17:49:00,
2013-03-08 13:05:00,56.5,9.4,30.12,West,270,0.0,-999.0,15,-99.99,,,0.00,Acu-Link.com,2013-03-08 18:05:00,
2013-03-08 13:20:00,57.0,9.8,30.11,West,270,1.7,-999.0,15,-99.99,,,0.00,Acu-Link.com,2013-03-08 18:20:00,
2013-03-08 13:35:00,60.1,12.3,30.10,WNW,292,0.0,-999.0,15,-99.99,,,0.00,Acu-Link.com,2013-03-08 18:35:00,
2013-03-08 13:50:00,58.6,11.1,30.10,South,180,2.2,-999.0,15,-99.99,,,0.00,Acu-Link.com,2013-03-08 18:50:00,
2013-03-08 14:05:00,59.0,12.9,30.09,East,90,2.7,-999.0,16,-99.99,,,0.00,Acu-Link.com,2013-03-08 19:05:00,
2013-03-08 14:20:00,59.2,13.1,30.08,South,180,0.0,-999.0,16,-99.99,,,0.00,Acu-Link.com,2013-03-08 19:20:00,
2013-03-08 14:35:00,59.7,8.8,30.07,ENE,67,2.7,-999.0,13,-99.99,,,0.00,Acu-Link.com,2013-03-08 19:35:00,
2013-03-08 14:50:00,59.2,17.0,30.07,ESE,112,1.7,-999.0,19,-99.99,,,0.00,Acu-Link.com,2013-03-08 19:50:00,
2013-03-08 15:05:00,63.0,9.6,30.06,SSE,157,1.1,-999.0,12,-99.99,,,0.00,Acu-Link.com,2013-03-08 20:05:00,
2013-03-08 15:21:00,59.9,13.6,30.05,ESE,112,2.2,-999.0,16,-99.99,,,0.00,Acu-Link.com,2013-03-08 20:21:00,
2013-03-08 15:36:00,59.7,10.5,30.06,NNW,337,1.7,-999.0,14,-99.99,,,0.00,Acu-Link.com,2013-03-08 20:36:00,
2013-03-08 15:51:00,60.3,9.3,30.05,South,180,0.0,-999.0,13,-99.99,,,0.00,Acu-Link.com,2013-03-08 20:51:00,
2013-03-08 16:06:00,61.3,6.4,30.04,East,90,1.7,-999.0,11,-99.99,,,0.00,Acu-Link.com,2013-03-08 21:06:00,
2013-03-08 16:21:00,63.0,-5.2,30.03,SSE,157,1.1,-999.0,6,-99.99,,,0.00,Acu-Link.com,2013-03-08 21:21:00,
2013-03-08 16:36:00,61.3,2.0,30.02,West,270,1.1,-999.0,9,-99.99,,,0.00,Acu-Link.com,2013-03-08 21:36:00,
2013-03-08 16:51:00,61.0,6.1,30.02,ESE,112,0.0,-999.0,11,-99.99,,,0.00,Acu-Link.com,2013-03-08 21:51:00,
2013-03-08 17:06:00,60.6,9.5,30.02,WNW,292,1.7,-999.0,13,-99.99,,,0.00,Acu-Link.com,2013-03-08 22:06:00,
2013-03-08 17:21:00,58.8,8.1,30.03,ESE,112,0.0,-999.0,13,-99.99,,,0.00,Acu-Link.com,2013-03-08 22:21:00,
2013-03-08 17:37:00,57.6,10.3,30.03,NE,45,1.1,-999.0,15,-99.99,,,0.00,Acu-Link.com,2013-03-08 22:37:00,
2013-03-08 17:52:00,56.1,13.2,30.03,East,90,0.0,-999.0,18,-99.99,,,0.00,Acu-Link.com,2013-03-08 22:52:00,
2013-03-08 18:07:00,54.9,13.4,30.03,NNW,337,1.1,-999.0,19,-99.99,,,0.00,Acu-Link.com,2013-03-08 23:07:00,
2013-03-08 18:22:00,53.6,14.6,30.04,West,270,0.0,-999.0,21,-99.99,,,0.00,Acu-Link.com,2013-03-08 23:22:00,
2013-03-08 18:37:00,52.2,13.5,30.04,NE,45,0.0,-999.0,21,-99.99,,,0.00,Acu-Link.com,2013-03-08 23:37:00,
2013-03-08 18:52:00,50.9,14.4,30.06,West,270,0.0,-999.0,23,-99.99,,,0.00,Acu-Link.com,2013-03-08 23:52:00,
2013-03-08 19:07:00,49.6,15.2,30.06,WSW,247,0.0,-999.0,25,-99.99,,,0.00,Acu-Link.com,2013-03-09 00:07:00,
2013-03-08 19:22:00,48.4,16.0,30.08,NNE,22,0.0,-999.0,27,-99.99,,,0.00,Acu-Link.com,2013-03-09 00:22:00,
2013-03-08 19:37:00,47.3,19.0,30.08,SW,225,1.1,-999.0,32,-99.99,,,0.00,Acu-Link.com,2013-03-09 00:37:00,
2013-03-08 19:53:00,46.4,16.7,30.09,NNW,337,0.0,-999.0,30,-99.99,,,0.00,Acu-Link.com,2013-03-09 00:53:00,
2013-03-08 20:08:00,45.1,23.4,30.09,West,270,0.0,-999.0,42,-99.99,,,0.00,Acu-Link.com,2013-03-09 01:08:00,
2013-03-08 20:23:00,43.9,21.2,30.10,NNW,337,0.0,-999.0,40,-99.99,,,0.00,Acu-Link.com,2013-03-09 01:23:00,
2013-03-08 20:38:00,42.6,23.3,30.10,ESE,112,0.0,-999.0,46,-99.99,,,0.00,Acu-Link.com,2013-03-09 01:38:00,
2013-03-08 20:53:00,41.5,23.8,30.11,NNE,22,0.0,-999.0,49,-99.99,,,0.00,Acu-Link.com,2013-03-09 01:53:00,
2013-03-08 21:08:00,40.5,22.9,30.12,West,270,0.0,-999.0,49,-99.99,,,0.00,Acu-Link.com,2013-03-09 02:08:00,
2013-03-08 21:23:00,40.3,25.4,30.12,West,270,0.0,-999.0,55,-99.99,,,0.00,Acu-Link.com,2013-03-09 02:23:00,
2013-03-08 21:38:00,39.7,24.4,30.12,SE,135,0.0,-999.0,54,-99.99,,,0.00,Acu-Link.com,2013-03-09 02:38:00,
2013-03-08 21:53:00,39.6,24.3,30.12,West,270,0.0,-999.0,54,-99.99,,,0.00,Acu-Link.com,2013-03-09 02:53:00,
2013-03-08 22:08:00,39.7,22.1,30.11,West,270,0.0,-999.0,49,-99.99,,,0.00,Acu-Link.com,2013-03-09 03:08:00,
2013-03-08 22:24:00,40.1,21.5,30.12,East,90,0.0,-999.0,47,-99.99,,,0.00,Acu-Link.com,2013-03-09 03:24:00,
2013-03-08 22:39:00,40.1,22.0,30.12,NW,315,0.0,-999.0,48,-99.99,,,0.00,Acu-Link.com,2013-03-09 03:39:00,
2013-03-08 22:54:00,39.7,22.6,30.11,WNW,292,0.0,-999.0,50,-99.99,,,0.00,Acu-Link.com,2013-03-09 03:54:00,
2013-03-08 23:09:00,39.4,22.3,30.12,WSW,247,0.0,-999.0,50,-99.99,,,0.00,Acu-Link.com,2013-03-09 04:09:00,
2013-03-08 23:24:00,39.0,22.4,30.11,WNW,292,0.0,-999.0,51,-99.99,,,0.00,Acu-Link.com,2013-03-09 04:24:00,
2013-03-08 23:39:00,38.7,22.1,30.12,SSE,157,0.0,-999.0,51,-99.99,,,0.00,Acu-Link.com,2013-03-09 04:39:00,
2013-03-08 23:54:00,38.1,21.6,30.11,SSW,202,0.0,-999.0,51,-99.99,,,0.00,Acu-Link.com,2013-03-09 04:54:00,